User: anonymous
Location: Bowman Observatory
(41.0326°N, 73.6210°W)
Time: 07:46:05
(UTC-04:00)
Language:

Cosmos 2297 - Orbit

View from above orbital plane
View from above orbital plane
View from above satellite
View from above satellite

Ground track
Ground track

The orbit data is extracted from the following two-line orbital elements,

1 23404U 94077A   14261.13841264 -.00000093  00000-0 -24360-4 0  8614
2 23404 071.0121 232.5933 0017457 236.1595 198.7458 14.13383957 22346
Epoch (UTC): 18 September 2014 03:19:18
Eccentricity: 0.0017457
inclination: 71.0121°
perigee height: 835 km
apogee height: 860 km
right ascension of ascending node: 232.5933°
argument of perigee: 236.1595°
revolutions per day: 14.13383957
mean anomaly at epoch: 198.7458°
orbit number at epoch: 2234

The dashed part of the orbit path shows where the satellite is in the earth's shadow,  

DLR